Location: St Paul
(33.9360°N, 83.4200°W)
Time: 16:40:58
(UTC-05:00)

ATLAS 5 CENTAUR R/B - Pass Details

Date: 06 October 2017
Orbit: 615 x 1045 km, 63.4° (Epoch: 12 December)

Event Time Altitude Azimuth Distance (km) Brightness Sun altitude
Rises 19:26:47 0° 228° (SW) 2,881 5.9 -4.1°
Reaches altitude 10° 19:29:06 10° 236° (WSW) 2,000 5.3 -4.6°
Maximum altitude 19:33:20 40° 306° (NW) 977 3.1 -5.5°
Drops below altitude 10° 19:37:54 10° 16° (NNE) 2,169 4.2 -6.4°
Sets 19:40:31 0° 24° (NNE) 3,158 4.9 -7.0°
